Tracking 31027 objects as of 19-Jul-2025
HD Live streaming from Space Station
objects crossing your sky now

FENGYUN 1C DEB

Track FENGYUN 1C DEB now!
10-day predictions


NORAD ID: 31266
Int'l Code: 1999-025BMY
Perigee: 731.4 km
Apogee: 919.7 km
Inclination: 99.2 °
Period: 101.3 minutes
Semi major axis: 7196 km
RCS: 0.0121 m2 (small)
Launch date: May 10, 1999
Source: People's Republic of China (PRC)
Launch site: Taiyaun Space Center, China (TSC)

Note: This is SATELLITE DEBRIS
Your satellite tracking list
ABS 3
Track 1 satellite(s)




NASA's NSSDC Master Catalog

Two Line Element Set (TLE):
1 31266U 99025BMY 25198.39731029  .00000502  00000-0  22832-3 0  9999
2 31266  99.2375 174.1986 0130765 346.6271 171.0803 14.22054321950976
Source of the keplerian elements: AFSPC